Regional Weather Roundup
Issued by NWS

Home | Current Version | Previous Version | Graphics & Text | Print | Product List | Glossary On
Versions: 1 2 3 4 5 6 7 8 9 10 11 12 13 14 15 16 17 18 19 20 21 22 23 24 25 26 27 28 29 30 31 32 33 34 35 36 37 38 39 40 41 42 43 44 45 46 47 48 49 50
000
ASUS45 KABQ 171910
RWRNM
NEW MEXICO REGIONAL WEATHER ROUNDUP
NATIONAL WEATHER SERVICE ALBUQUERQUE NM
1200 PM MST FRI NOV 17 2017

NOTE: "FAIR" MEANS FEW OR NO CLOUDS BELOW 12,000 FEET AGL WITH NO
       SIGNIFICANT WEATHER OR OBSTRUCTIONS TO VISION.

      THIS PRODUCT IS RELEASED AS TWO VERSIONS.  ONE VERSION NEAR
      THE TOP OF THE HOUR CONTAINING PRELIMINARY DATA FROM ALBUQUERQUE
      AND OTHER STATIONS.  A FINAL VERSION WITH ADDITIONAL DATA IS
      ISSUED ABOUT 10 MINUTES AFTER THE HOUR.

NMZ501-503-504-510>518-172000-
NORTHWEST PLATEAU/NORTHCENTRAL MOUNTAINS

CITY           SKY/WX    TMP DP  RH WIND       PRES   REMARKS
FARMINGTON     CLOUDY    59  32  36 W20G31    29.94F
LOS ALAMOS     CLOUDY    56  26  31 SW17G24   30.04F
SANTA FE       PTSUNNY   62  27  26 SW8       30.01F
TAOS           FAIR      56  27  32 W24G30    30.01F
ANGEL FIRE     CLOUDY    46  30  53 SW12G20   30.03F

$$
NMZ402-403-502-505>509-172000-
WESTCENTRAL MOUNTAINS/SOUTHWEST MOUNTAINS

CITY           SKY/WX    TMP DP  RH WIND       PRES   REMARKS
GALLUP         PTSUNNY   58  31  35 SW26G33   30.08F
GRANTS         FAIR      63  26  24 W17G40    30.09S
SILVER CITY    FAIR      72  17  12 W20G25    30.13F

$$
NMZ407-409-411-412-172000-
SOUTHERN DESERTS

CITY           SKY/WX    TMP DP  RH WIND       PRES   REMARKS
DEMING         FAIR      76  22  13 W18G25    30.07F
LAS CRUCES     FAIR      73  21  14 SW7       30.09F
HOLLOMAN AFB   FAIR      80  21  11 S14       30.04F
ALAMOGORDO     FAIR      77  23  13 S8        30.05F
T OR C         FAIR      77  19  11 SW12G17   30.01F

$$
NMZ519>523-172000-
CENTRAL VALLEYS/CENTRAL HIGHLANDS

CITY           SKY/WX    TMP DP  RH WIND       PRES   REMARKS
ALBUQUERQUE    PTSUNNY   66  19  16 SW10      30.02F
DOUBLE EAGLE   PTSUNNY   66  28  24 SW26G38   30.03F
MORIARTY ARPT  FAIR      67  20  16 W23       30.05F
CLINES CORNERS FAIR      60  19  20 W31G45    30.05F
BELEN          FAIR      71  16  12 SW8       30.01F
SOCORRO        PTSUNNY   72  21  14 CALM      30.01F

$$
NMZ524>526-539-540-172000-
SOUTHCENTRAL MOUNTAINS

CITY           SKY/WX    TMP DP  RH WIND       PRES   REMARKS
RUIDOSO        FAIR      72  27  18 W30G38    30.08F

$$
NMZ527>531-172000-
NORTHEAST HIGHLANDS/NORTHEAST PLAINS

CITY           SKY/WX    TMP DP  RH WIND       PRES   REMARKS
LAS VEGAS      FAIR      63  27  25 W29G46    29.95F
RATON          FAIR      66  30  26 W36G45    29.83F
CLAYTON        FAIR      75  33  21 W32G41    29.75F

$$
NMZ532>537-172000-
EASTCENTRAL PLAINS

CITY           SKY/WX    TMP DP  RH WIND       PRES   REMARKS
SANTA ROSA     FAIR      75  21  13 W23G36    29.87F
TUCUMCARI      FAIR      82  22  11 W26G38    29.80F
CANNON AFB     FAIR      77  19  11 W29G36    29.89F
CLOVIS AIRPORT FAIR      76  24  14 W29G36    29.89F

$$
NMZ028-029-538-172000-
SOUTHEAST PLAINS

CITY           SKY/WX    TMP DP  RH WIND       PRES   REMARKS
ROSWELL        FAIR      82  38  20 E7        29.89F
ARTESIA        FAIR      82  28  14 SW26G37   29.90F
CARLSBAD       FAIR      79  31  17 W12       29.93F
HOBBS          SUNNY     81  23  12 W25G36    29.94F


$$




USA.gov is the U.S. government's official web portal to all federal, state and local government web resources and services.